Frankfort, KY

7:11 AM EDT on September 21, 2017 (GMT -0400)
Capital City

Weather History for KFFT - July, 2014

Change the Weather History Date:

Saturday, July 19, 2014

  Actual Average Record
Temperature  
Mean Temperature 69 °F 76 °F  
Max Temperature 74 °F 87 °F 100 °F (1954)
Min Temperature 63 °F 66 °F 53 °F (2009)
Degree Days  
Heating Degree Days 0 0  
Month to date heating degree days 1 0  
Since 1 June heating degree days 4 10  
Since 1 July heating degree days 1 0  
Cooling Degree Days 4 11  
Month to date cooling degree days 134 209  
Year to date cooling degree days 521 544  
Since 1 June cooling degree days 399 445  
Growing Degree Days 18 (Base 50)    
Moisture  
Dew Point 64 °F    
Average Humidity 90    
Maximum Humidity 100    
Minimum Humidity 79    
Precipitation  
Precipitation 0.01 in 0.15 in 1.95 in (1971)
Month to date precipitation 1.26 2.65  
Year to date precipitation 25.96 26.21  
Sea Level Pressure  
Sea Level Pressure 30.05 in    
Wind  
Wind Speed 4 mph (East)    
Max Wind Speed 8 mph    
Max Gust Speed 11 mph    
Visibility 8 miles    
Events Rain    
T = Trace of Precipitation, MM = Missing Value Source: NWS Daily Summary

Daily Weather History Graph

Daily Weather History Graph

Search for Another Location

Airport or City:

Trip Planner

Search our weather history database for the weather conditions in past years. The results will help you decide how hot, cold, wet, or windy it might be!

Date:

Astronomy

Jul. 19, 2014 Rise Set
Actual Time 6:31 AM EDT 8:59 PM EDT
Civil Twilight 6:01 AM EDT 9:30 PM EDT
Nautical Twilight 5:23 AM EDT 10:07 PM EDT
Astronomical Twilight 4:41 AM EDT 10:49 PM EDT
Moon 1:03 AM EDT (7/19) 2:42 PM EDT (7/19)
Length of Visible Light 15h 29m
Length of Day
14h 28m
Last Quarter, 44% of the Moon is Illuminated
Jul 19
Last Quarter
Jul 26
New
Aug 3
First Quarter
Aug 10
Full
Aug 17
Last Quarter

Hourly Weather History & Observations

Time (EDT) Temp. Dew Point Humidity Pressure Visibility Wind Dir Wind Speed Gust Speed Precip Events Conditions
12:53 AM 63.0 °F 62.1 °F 97% 30.10 in 6.0 mi SE 4.6 mph - N/A   Overcast
1:53 AM 63.0 °F 62.1 °F 97% 30.08 in 7.0 mi East 3.5 mph - N/A   Overcast
2:53 AM 63.0 °F 62.1 °F 97% 30.07 in 9.0 mi Calm Calm - N/A   Overcast
3:53 AM 64.0 °F 62.1 °F 93% 30.06 in 10.0 mi East 3.5 mph - N/A   Overcast
4:53 AM 64.0 °F 62.1 °F 93% 30.06 in 10.0 mi Calm Calm - N/A   Overcast
5:53 AM 64.0 °F 62.1 °F 93% 30.06 in 6.0 mi Calm Calm - N/A   Overcast
6:30 AM 64.0 °F 62.1 °F 93% 30.07 in 8.0 mi East 3.5 mph - N/A   Overcast
6:53 AM 64.0 °F 62.1 °F 93% 30.06 in 7.0 mi East 3.5 mph - N/A   Overcast
7:15 AM 64.0 °F 62.1 °F 93% 30.07 in 7.0 mi ESE 3.5 mph - N/A   Overcast
7:53 AM 64.0 °F 62.1 °F 93% 30.06 in 8.0 mi East 3.5 mph - N/A   Overcast
8:03 AM 64.9 °F 63.0 °F 93% 30.07 in 9.0 mi East 3.5 mph - N/A   Overcast
8:20 AM 64.9 °F 63.0 °F 93% 30.08 in 9.0 mi ESE 4.6 mph - N/A   Overcast
8:53 AM 64.9 °F 63.0 °F 93% 30.07 in 10.0 mi SE 4.6 mph - N/A   Overcast
9:53 AM 66.9 °F 63.0 °F 87% 30.07 in 10.0 mi Variable 3.5 mph - N/A   Overcast
10:11 AM 66.9 °F 64.0 °F 90% 30.08 in 10.0 mi East 5.8 mph - N/A   Overcast
10:53 AM 66.9 °F 63.0 °F 87% 30.07 in 7.0 mi ESE 4.6 mph - N/A   Overcast
11:12 AM 66.9 °F 64.0 °F 90% 30.08 in 4.0 mi Calm Calm - N/A   Overcast
11:19 AM 66.9 °F 64.0 °F 90% 30.07 in 4.0 mi Calm Calm - N/A   Overcast
11:38 AM 68.0 °F 64.9 °F 90% 30.07 in 4.0 mi East 3.5 mph - N/A   Overcast
11:53 AM 68.0 °F 64.9 °F 90% 30.05 in 7.0 mi ENE 4.6 mph - N/A   Overcast
12:38 PM 69.1 °F 64.9 °F 87% 30.07 in 10.0 mi ENE 4.6 mph - 0.00 in   Overcast
12:53 PM 69.1 °F 64.9 °F 87% 30.05 in 5.0 mi East 5.8 mph - 0.00 in   Overcast
1:42 PM 70.0 °F 66.0 °F 87% 30.05 in 10.0 mi East 5.8 mph - N/A   Overcast
1:53 PM 70.0 °F 64.9 °F 84% 30.04 in 10.0 mi East 4.6 mph - N/A   Overcast
2:00 PM 70.0 °F 64.9 °F 84% 30.05 in 10.0 mi ENE 5.8 mph - N/A   Overcast
2:12 PM 70.0 °F 64.9 °F 84% 30.05 in 10.0 mi East 4.6 mph - N/A   Overcast
2:40 PM 69.1 °F 66.0 °F 90% 30.04 in 4.0 mi East 4.6 mph - 0.00 in Rain Light Rain
2:46 PM 69.1 °F 66.0 °F 90% 30.04 in 4.0 mi ENE 4.6 mph - 0.00 in Rain Light Rain
2:53 PM 69.1 °F 66.0 °F 90% 30.03 in 8.0 mi ENE 4.6 mph - 0.00 in   Overcast
3:09 PM 70.0 °F 66.0 °F 87% 30.03 in 10.0 mi NE 4.6 mph - N/A   Overcast
3:53 PM 72.0 °F 66.0 °F 81% 30.01 in 10.0 mi NE 5.8 mph - N/A   Overcast
4:53 PM 72.0 °F 64.9 °F 78% 30.01 in 10.0 mi Calm Calm - N/A   Overcast
5:53 PM 73.0 °F 66.0 °F 79% 30.01 in 10.0 mi North 6.9 mph - N/A   Overcast
6:53 PM 73.0 °F 66.0 °F 79% 30.01 in 10.0 mi NE 5.8 mph - N/A   Overcast
7:53 PM 72.0 °F 66.0 °F 81% 30.01 in 10.0 mi NNE 4.6 mph - N/A   Overcast
8:53 PM 71.1 °F 66.0 °F 84% 30.01 in 10.0 mi Calm Calm - N/A   Overcast
9:53 PM 71.1 °F 66.0 °F 84% 30.01 in 10.0 mi NE 3.5 mph - N/A   Overcast
11:43 PM 70.0 °F 66.0 °F 87% 30.02 in 10.0 mi ENE 3.5 mph - N/A   Overcast
11:53 PM 70.0 °F 66.0 °F 87% 30.01 in 10.0 mi NE 3.5 mph - N/A   Overcast